Starlink 3881

operational
NORAD ID: 52472 Int'l Des: 2022-049 Owner: SPXS Country: US Constellation: starlink
LEOCIRCULAR

About Starlink 3881

Description loading...

Live Position

Loading 3D Globe...

Upcoming Passes

Altitude History

Altitude vs Time

uPlot chart will show altitude changes over time

Two-Line Element Set

1 52472U 22049X 26062.08147978 -.00000765 00000-0 -29949-4 0 9994
2 52472 53.2164 88.7826 0001293 95.5459 264.5681 15.08841513211253
Epoch: Mar 3, 2026 • Age: 32 hours

Current Status

Altitude 552.8 km
Velocity 7.58 km/s
Sub-Earth Point -37.86°S, 126.65°E
Launch Date May 6, 2022
Age 3.8 years
Type internet

Technical Details

Classification Payload
Mass 297.00 kg
Dry Mass 220.00 kg
Total Mass 297.00 kg
Length 0.20 m
Diameter 2.80 m
Span 9.00 m
Shape Box + pan
Manufacturer SPXS
Bus Type Starlink
Phase Status In Orbit
Owner/State SPXS/US

Large Constellations

Loading constellations...